This demonstration page uses our WeatherBlox Daily Observations layout. Learn more.

Left ArrowRight Arrow

Hourly Observations for November 27, 2018

Temp ( °F °C ) Dew Point ( °F °C ) Humidity (%) Winds ( mph kmh ) Pressure ( in mb ) Visibility ( mi km ) Precip ( " mm )
12:53 am 00:53 Cloudy 30 -1.1 25 -3.9 82 82 W 9 15 29.97 1015 10 16 N/A
1:53 am 01:53 Cloudy 29 -1.7 22 -5.6 75 75 WNW 13 20 29.97 1015 10 16 N/A
2:53 am 02:53 Cloudy 28 -2.2 23 -5 81 81 WNW 12 19 29.98 1015 10 16 N/A
3:53 am 03:53 Cloudy 27 -2.8 22 -5.6 81 81 NW 12 19 29.98 1015 10 16 N/A
4:53 am 04:53 Cloudy 27 -2.8 21 -6.1 78 78 WNW 9 15 29.97 1015 10 16 N/A
5:53 am 05:53 Cloudy 27 -2.8 21 -6.1 78 78 W 10 17 29.98 1015 10 16 N/A
6:53 am 06:53 Cloudy 27 -2.8 20 -6.7 75 75 VRB 7 11 29.99 1016 10 16 N/A
7:53 am 07:53 Cloudy 26 -3.3 20 -6.7 78 78 W 10 17 30.00 1016 10 16 N/A
8:53 am 08:53 Cloudy with Light Snow 26 -3.3 20 -6.7 78 78 W 8 13 30.01 1016 3 5 N/A
9:02 am 09:02 Cloudy with Light Snow 26 -3.3 20 -6.7 78 78 W 9 15 30.03 1017 2 3 N/A
9:53 am 09:53 Cloudy with Light Snow 26 -3.3 21 -6.1 81 81 W 9 15 30.01 1016 2 3 N/A
10:04 am 10:04 Cloudy with Light Snow 26 -3.3 21 -6.1 81 81 W 8 13 30.06 1018 2 3 N/A
10:41 am 10:41 Cloudy with Light Snow 26 -3.3 20 -6.7 78 78 W 8 13 30.06 1018 3 5 N/A
10:53 am 10:53 Cloudy with Light Snow 26 -3.3 20 -6.7 78 78 W 12 19 30.00 1016 5 8 N/A
11:53 am 11:53 Cloudy with Light Snow 26 -3.3 20 -6.7 78 78 W 12 19 29.99 1016 5 8 N/A
12:53 pm 12:53 Cloudy with Light Snow 26 -3.3 20 -6.7 78 78 W 9 15 29.97 1015 8 13 N/A
1:53 pm 13:53 Cloudy 26 -3.3 20 -6.7 78 78 W 12 19 29.96 1015 10 16 N/A
2:53 pm 14:53 Cloudy 26 -3.3 19 -7.2 75 75 W 13 20 29.97 1015 10 16 N/A
3:53 pm 15:53 Cloudy with Light Snow 26 -3.3 18 -7.8 71 71 W 10 17 29.98 1015 9 14 N/A
4:53 pm 16:53 Cloudy 25 -3.9 19 -7.2 78 78 W 9 15 30.00 1016 10 16 N/A
5:53 pm 17:53 Cloudy 24 -4.4 17 -8.3 75 75 W 13 20 30.01 1016 10 16 N/A
6:53 pm 18:53 Cloudy 24 -4.4 16 -8.9 71 71 W 13 20 30.03 1017 10 16 N/A
7:53 pm 19:53 Cloudy 24 -4.4 16 -8.9 71 71 W 8 13 30.05 1018 10 16 N/A
8:50 pm 20:50 Cloudy 25 -4 16 -9 69 69 W 10 17 30.09 1019 10 16 N/A
8:53 pm 20:53 Cloudy 24 -4.4 16 -8.9 71 71 W 10 17 30.04 1017 10 16 N/A
9:53 pm 21:53 Cloudy 24 -4.4 16 -8.9 71 71 WSW 9 15 30.05 1018 10 16 N/A
10:53 pm 22:53 Cloudy 23 -5 16 -8.9 74 74 WSW 5 7 30.05 1018 10 16 N/A
11:15 pm 23:15 Cloudy 23 -5 16 -8.9 74 74 WSW 9 15 30.09 1019 10 16 N/A
11:53 pm 23:53 Cloudy 23 -5 16 -8.9 74 74 W 8 13 30.05 1018 10 16 N/A

Powered by AerisWeather